OBJECT AD, 62404

Orbit data source: Space-Track

You're viewing an Uncataloged Satellite

Recently launched and/or uncataloged satellites may have evolving metadata. Metadata may include but not limited to: Owner, Maufacturer, Bus, Motor, and Mission.

OBJECT AD, 62404 is a satellite in LEO that was launched on Sat, 21 Dec 2024 UTC via an FALCON 9 launch vehicle from the Air Force Western Test Range (AFWTR). Unknown objects in Earth's orbit typically refer to objects detected orbiting the Earth but have not yet been identified or cataloged. These objects could be anything from previously untracked satellites, spent rocket stages, debris from satellite collisions, or even natural meteoroids temporarily captured by Earth's gravity.

Loading next visibility...
Identifier
62404, 2024-247AD
Orbit
LEO
Country
Flag of TBDTBD
Related business
None
Manufacturer
Unknown
Mission
Operational Commercial Communications
Bus & Motor
Unknown
Mass
Unknown
Launch date (UTC)
2024-12-21 (1 year ago)
Launch vehicle
FALCON 9
Launch site
Air Force Western Test Range (AFWTR)
Object type
Unknown
Shape & HBR
Box, 0.0 m
Radar Cross Section
0.004 m², Small (<0.1 m²)

Expand to show TLE details & history
Last TLE update: 8 hours ago

TLE from 8 hours ago
0 OBJECT AD
1 62404U 24247AD  25349.85051126  .00018920  00000-0  50975-3 0  9995
2 62404  44.9964 197.9457 0009403 214.5288 145.4989 15.37563923 55118
Epoch: 2025-12-15T20:24Z
TLE epoch observation values (Epoch: 2025-12-15T20:24:44.172Z)
Latitude
-0.00003°
Longitude
167.01847°
Altitude
458.609 km
Speed
7.636 km/s
True Right ascension
13h 11m 46s
True Declination
0° 00' 00"
Sunlit
Object was in daylight at epoch
Visualization orbit readout
Latitude
Unknown
Longitude
Unknown
Altitude
Unknown
Speed
Unknown
Apparent Right ascension
Unknown
Apparent Declination
Unknown
Sunlit
N/A
Visualization observer readout
Local Sidereal Time
03:26:44
Azimuth
Unknown
Elevation
Unknown
Doppler factor
Unknown
Orbital elements
Apogee altitude
461.357 km
Perigee altitude
448.507 km
Semi-major axis
6,833.069 km
Eccentricity
0.00094
Inclination
44.9964°
RAAN
197.9457°
Arg. of periapsis
214.5288°
True anomaly
145.55987°
Mean anomaly
145.4989°
Eccentric anomaly
145.52939°
Mean motion
3.84255 °/min
Orbital period
93.69 mins
BSTAR
0.00050975
Loading maneuver chart data...
Computing Atmospheric mass density...
Loading historical data...
Loading historical data...
Loading historical data...
Loading historical data...
Loading historical data...
Loading historical data...
Loading historical data...

Documentation

Showing up to 5 results
|